Regional Weather Roundup
Issued by NWS

Home | Current Version | Previous Version | Text Only | Print | Product List | Glossary On
Versions: 1 2 3 4 5 6 7 8 9 10 11 12 13 14 15 16 17 18 19 20 21 22 23 24 25 26 27 28 29 30 31 32 33 34 35 36 37 38 39 40 41 42 43 44 45 46 47 48 49 50
833
ASUS44 KFWD 221110
RWRTX
NORTH TEXAS HOURLY WEATHER ROUNDUP
NATIONAL WEATHER SERVICE FORT WORTH TX
500 AM CST WED NOV 22 2017

NOTE: "FAIR" INDICATES FEW OR NO CLOUDS BELOW 12,000 FEET WITH NO
SIGNIFICANT WEATHER AND/OR OBSTRUCTIONS TO VISIBILITY.

TXZ118-119-221200-
DALLAS/FORT WORTH METROPLEX

CITY           SKY/WX    TMP DP  RH WIND       PRES   REMARKS
DFW AIRPORT    CLEAR     45  19  35 N18       30.31R WCI  37
DALLAS LOVE    CLEAR     45  19  35 N9        30.32R
FTW MEACHAM    CLEAR     43  19  38 NW10      30.33R WCI  37
DAL-EXECUTIVE  CLEAR     45  21  38 N12       30.30R WCI  39
FTW-ALLIANCE   CLEAR     40  18  41 NW9       30.34R WCI  34
FTW-NAS-JRB    CLEAR     44  19  36 N13       30.35R WCI  38
FTW-SPINKS     CLEAR     42  19  39 N13       30.34S WCI  36
ARLINGTON      CLEAR     44  23  43 N10       30.32R WCI  39
GRAND PRAIRIE  CLEAR     45  20  38 N13       30.33S WCI  38
MESQUITE       CLEAR     44  20  38 N13G22    30.31S WCI  38
LANCASTER      CLEAR     45  24  43 N13       30.32R WCI  39
$$

TXZ091>094-102>105-117-120-121-131>134-221200-
NORTH CENTRAL TEXAS

CITY           SKY/WX    TMP DP  RH WIND       PRES   REMARKS
SHRMAN/DENISON PTCLDY    38  19  46 N10       30.36R WCI  31
GAINESVILLE    PTCLDY    36  14  39 N9        30.39R WCI  29
BOWIE          CLOUDY    35  15  45 N10       30.37R WCI  27
BRIDGEPORT     CLEAR     40  17  40 N8        30.39S WCI  34
DENTON         CLEAR     38  19  46 N12       30.35R WCI  30
MCKINNEY       CLEAR     41  18  39 N14       30.31S WCI  33
BONHAM         CLEAR     37  15  40 N8        30.34S WCI  31
GREENVILLE     CLEAR     45  21  39 N14       30.31R WCI  38
ROCKWALL       CLEAR     44  20  39 N13       30.31S WCI  37
TERRELL        CLEAR     45  18  34 N10G21    30.31R WCI  40
WAXAHACHIE     CLEAR     44  28  52 N14G22    30.30S WCI  38
CLEBURNE       CLEAR     43  21  42 N14       30.33R WCI  36
GRANBURY       CLEAR     43  26  51 NW8       30.35R WCI  38
$$

TXZ083>090-098>101-113>116-127>130-139>142-154-155-221200-
WESTERN NORTH TEXAS

CITY           SKY/WX    TMP DP  RH WIND       PRES   REMARKS
WICHITA FALLS  CLEAR     35  13  40 N15       30.40R WCI  25
WF-KICKAPOO    CLEAR     37  13  36 N13       30.42S WCI  29
VERNON         CLEAR     35  14  42 N7        30.45R WCI  30
ABILENE        CLEAR     36  28  73 N9        30.38R WCI  29
ABILENE-DYESS  CLEAR     35  28  77 NW9       30.38R WCI  27
GRAHAM           N/A     35  20  54 NW6       30.38R WCI  30
BRECKENRIDGE   CLEAR     39  21  49 N7        30.38S WCI  34
CISCO          CLEAR     39  21  48 N9G16     30.36S WCI  33
EASTLAND       CLEAR     38  21  51 N8        30.36F WCI  32
RANGER         CLEAR     38  23  54 N7        30.36S WCI  33
MINERAL WELLS  CLEAR     39  21  48 N14       30.35R WCI  31
STEPHENVILLE   CLEAR     41  26  54 N9G17     30.36R WCI  35
COMANCHE       CLEAR     41  28  60 N10       30.35R WCI  34
BROWNWOOD      CLEAR     41  25  52 N10       30.35F WCI  35
COLEMAN        CLEAR     40  25  55 N10       30.36R WCI  34
$$

TXZ143>147-156>162-174-175-221200-
CENTRAL TEXAS

CITY           SKY/WX    TMP DP  RH WIND       PRES   REMARKS
WACO           CLEAR     48  33  56 N15       30.29R
WACO-MCGREGOR  CLEAR     48  33  56 N15G23    30.29R
HILLSBORO      CLEAR     45  31  57 N13       30.29R WCI  39
CORSICANA      CLEAR     48  27  44 N17G23    30.30R
MEXIA          CLEAR     48  30  51 NW14G20   30.26R
HEARNE         MOCLDY    51  40  66 N15       30.24R
CAMERON        CLEAR     51  37  58 N12G20    30.26R
TEMPLE         CLEAR     48  34  58 N13       30.28R
KILLEEN        CLEAR     46  34  64 NW14      30.28R WCI  39
KILLEEN-SKYLRK CLEAR     48  34  58 N13G21    30.29R
FORT HOOD      CLEAR     46  33  59 N14       30.25R
GATESVILLE     CLEAR     46  32  57 N12       30.31R
HAMILTON       CLEAR     44  30  58 N12       30.32R WCI  37
LAMPASAS       CLEAR     45  34  65 N12       30.28S WCI  39
$$

TXZ095>097-106>112-122>126-135>138-148>153-164>167-221200-
EAST TEXAS

CITY           SKY/WX    TMP DP  RH WIND       PRES   REMARKS
PARIS          CLEAR     40  21  46 N13       30.31R WCI  32
SULPHUR SPRNGS CLEAR     44  25  45 N16       30.32R WCI  37
MOUNT PLEASANT CLEAR     45  34  66 N10       30.30R WCI  39
GILMER         CLEAR     46  38  73 NW7       30.26R
MINEOLA        CLEAR     46  28  49 N9G16     30.28R
TYLER          CLEAR     47  35  63 N10       30.26R
LONGVIEW       CLEAR     48  44  86 NW7       30.23R
MARSHALL       CLEAR     47  42  81 N6        30.26R
ATHENS         CLEAR     45  30  57 N12G18    30.26R WCI  39
PALESTINE      CLEAR     49  40  72 N8        30.25R
JACKSONVILLE   CLOUDY    52  43  70 N10       30.25R
HENDERSON      CLEAR     49  43  78 N7        30.24R
CENTER         SUNNY     46  45  95 NW5       30.20R
NACOGDOCHES    CLEAR     51  48  89 N7        30.20R
LUFKIN         MOCLDY    53  51  93 N6        30.18R
$$

SUPPLEMENTAL OBSERVATIONS (NWS FORT WORTH AREA)

CITY           SKY/WX    TMP DP  RH WIND       PRES   REMARKS
CADDO GRASSLND   N/A     37  18  44 N3          N/A
LBJ GRASSLAND    N/A     37  12  35 N6G14       N/A  WCI  33
POSSUM KINGDOM   N/A     37  19  48 N7          N/A  WCI  32
GRANBURY         N/A     41  25  52 NW9         N/A  WCI  35
MCGREGOR         N/A     46  32  57 N7G17       N/A
TEMPLE           N/A     48  34  57 N17G23      N/A
$$

SUPPLEMENTAL OBSERVATIONS (NWS NORMAN AREA)

CITY           SKY/WX    TMP DP  RH WIND       PRES   REMARKS
GOODLETT         N/A     31  22  72 NW9       30.43F WCI  22
ODELL            N/A     28  21  74 NW5       30.45S WCI  23
CROWELL          N/A     32  23  68 NW3       30.46R
KNOX CITY        N/A     32  23  70 NW6       30.46R WCI  26
SEYMOUR          N/A     34  22  60 NW7       30.44R WCI  28
MILLERS CREEK    N/A     36  21  55 N8          N/A  WCI  29
$$

SUPPLEMENTAL OBSERVATIONS (NWS SAN ANGELO AREA)

CITY           SKY/WX    TMP DP  RH WIND       PRES   REMARKS
WEINERT          N/A     36  20  51 N12       30.44R WCI  28
HASKELL          N/A     34  23  64 N10       30.43R WCI  26
THROCKMORTON     N/A     35  20  56 N6        30.43R WCI  29
STAMFORD         N/A     35  25  67 N7        30.43R WCI  29
CLYDE            N/A     35  24  62 N8        30.38R WCI  29
HAMBY            N/A     36  27  69 N5          N/A  WCI  32
$$

SUPPLEMENTAL OBSERVATIONS (NWS SHREVEPORT AREA)

CITY           SKY/WX    TMP DP  RH WIND       PRES   REMARKS
TEXARKANA        N/A     46  36  66 N7          N/A
LINDEN           N/A     46  39  76 N1          N/A
N SABINE NF      N/A     46  45  93 MISG        N/A
$$

SUPPLEMENTAL OBSERVATIONS ARE A COLLECTION OF AUTOMATED INSTRUMENTS
THAT ARE MAINTAINED BY A VARIETY OF FEDERAL AND STATE AGENCIES.
CERTAIN ELEMENTS...SUCH AS HUMIDITY VALUES AND SUSTAINED WIND
SPEEDS...MAY BE APPROXIMATED.





USA.gov is the U.S. government's official web portal to all federal, state and local government web resources and services.